Satellite: UO-22
Catalog number: 21575
Epoch time:      05034.11804376
Element set:     320
Inclination:       98.2271 deg
RA of node:         4.6362 deg
Eccentricity:    0.0008179
Arg of perigee:   129.7507 deg
Mean anomaly:     230.4405 deg
Mean motion:   14.39458804 rev/day
Decay rate:        7.4e-07 rev/day^2
Epoch rev:           71121
Checksum:              275

Satellite: KO-23
Catalog number: 22077
Epoch time:      05033.72503484
Element set:     382
Inclination:       66.0872 deg
RA of node:        68.0496 deg
Eccentricity:    0.0014569
Arg of perigee:   288.1259 deg
Mean anomaly:      71.8180 deg
Mean motion:   12.86428269 rev/day
Decay rate:       -3.7e-07 rev/day^2
Epoch rev:           58629
Checksum:              327

Satellite: AO-27
Catalog number: 22825
Epoch time:      05034.40052042
Element set:      54
Inclination:       98.2482 deg
RA of node:        37.0136 deg
Eccentricity:    0.0007523
Arg of perigee:   301.7226 deg
Mean anomaly:      58.3229 deg
Mean motion:   14.29112317 rev/day
Decay rate:        3.5e-07 rev/day^2
Epoch rev:           59211
Checksum:              254

Satellite: IO-26
Catalog number: 22826
Epoch time:      05033.61454935
Element set:     721
Inclination:       98.2415 deg
RA of node:        37.5599 deg
Eccentricity:    0.0008404
Arg of perigee:   305.0720 deg
Mean anomaly:      54.9676 deg
Mean motion:   14.29351331 rev/day
Decay rate:        2.6e-07 rev/day^2
Epoch rev:           59206
Checksum:              296

Satellite: KO-25
Catalog number: 22828
Epoch time:      05033.57138124
Element set:     980
Inclination:       98.2369 deg
RA of node:        37.7364 deg
Eccentricity:    0.0008992
Arg of perigee:   279.0134 deg
Mean anomaly:      81.0053 deg
Mean motion:   14.29666718 rev/day
Decay rate:       -4.1e-07 rev/day^2
Epoch rev:           56028
Checksum:              314

Satellite: TO-31
Catalog number: 25396
Epoch time:      05034.38387936
Element set:     168
Inclination:       98.5474 deg
RA of node:       105.5566 deg
Eccentricity:    0.0002352
Arg of perigee:   190.3429 deg
Mean anomaly:     169.7710 deg
Mean motion:   14.23656209 rev/day
Decay rate:       -4.3e-07 rev/day^2
Epoch rev:           34137
Checksum:              314

Satellite: GO-32
Catalog number: 25397
Epoch time:      05033.63939259
Element set:     664
Inclination:       98.5388 deg
RA of node:       102.6052 deg
Eccentricity:    0.0001072
Arg of perigee:   185.0497 deg
Mean anomaly:     175.0670 deg
Mean motion:   14.23069082 rev/day
Decay rate:       1.30e-06 rev/day^2
Epoch rev:           34119
Checksum:              298

Satellite: UO-36
Catalog number: 25693
Epoch time:      05034.34329032
Element set:     882
Inclination:       64.5608 deg
RA of node:       334.7396 deg
Eccentricity:    0.0037542
Arg of perigee:   229.0747 deg
Mean anomaly:     130.7114 deg
Mean motion:   14.78461935 rev/day
Decay rate:        3.2e-07 rev/day^2
Epoch rev:           31203
Checksum:              296

Satellite: SO-41
Catalog number: 26545
Epoch time:      05033.92039440
Element set:     991
Inclination:       64.5596 deg
RA of node:       351.3074 deg
Eccentricity:    0.0035988
Arg of perigee:   328.2177 deg
Mean anomaly:      31.6758 deg
Mean motion:   14.80008591 rev/day
Decay rate:       1.89e-06 rev/day^2
Epoch rev:           23505
Checksum:              318

Satellite: MO-46
Catalog number: 26548
Epoch time:      05034.10053765
Element set:      95
Inclination:       64.5605 deg
RA of node:       335.0226 deg
Eccentricity:    0.0034466
Arg of perigee:   317.2953 deg
Mean anomaly:      42.5459 deg
Mean motion:   14.82609442 rev/day
Decay rate:       3.26e-06 rev/day^2
Epoch rev:           23540
Checksum:              292

Satellite: SO-42
Catalog number: 26549
Epoch time:      05034.21448380
Element set:      52
Inclination:       64.5586 deg
RA of node:       358.2974 deg
Eccentricity:    0.0036583
Arg of perigee:   335.1351 deg
Mean anomaly:      24.7960 deg
Mean motion:   14.78891995 rev/day
Decay rate:       1.82e-06 rev/day^2
Epoch rev:           23494
Checksum:              331

Satellite: NO-44
Catalog number: 26931
Epoch time:      05034.39331598
Element set:     962
Inclination:       67.0530 deg
RA of node:       212.3744 deg
Eccentricity:    0.0007268
Arg of perigee:   261.5551 deg
Mean anomaly:      98.4719 deg
Mean motion:   14.29358854 rev/day
Decay rate:      -1.67e-06 rev/day^2
Epoch rev:           17464
Checksum:              325

Satellite: AO-49
Catalog number: 27605
Epoch time:      05034.42976861
Element set:     653
Inclination:       64.5579 deg
RA of node:       182.0034 deg
Eccentricity:    0.0085893
Arg of perigee:   266.3060 deg
Mean anomaly:      92.8216 deg
Mean motion:   14.72030831 rev/day
Decay rate:        4.2e-07 rev/day^2
Epoch rev:           11416
Checksum:              299

Satellite: SO-50
Catalog number: 27607
Epoch time:      05033.96455155
Element set:     633
Inclination:       64.5577 deg
RA of node:       188.3193 deg
Eccentricity:    0.0086595
Arg of perigee:   265.3394 deg
Mean anomaly:      93.7823 deg
Mean motion:   14.70874706 rev/day
Decay rate:       2.59e-06 rev/day^2
Epoch rev:           11399
Checksum:              347

